Regional Weather Roundup
Issued by NWS

Home | Current Version | Previous Version | Text Only | Print | Product List | Glossary Off
Versions: 1 2 3 4 5 6 7 8 9 10 11 12 13 14 15 16 17 18 19 20 21 22 23 24 25 26 27 28 29 30 31 32 33 34 35 36 37 38 39 40 41 42 43 44 45 46 47 48 49 50

000
ASUS43 KLOT 260608
RWRIL

ILLINOIS REGIONAL WEATHER ROUNDUP
NATIONAL WEATHER SERVICE CHICAGO/ROMEOVILLE IL
100 AM CDT THU MAY 26 2016

NOTE: "FAIR" INDICATES FEW OR NO CLOUDS BELOW 12,000 FEET WITH NO
SIGNIFICANT WEATHER AND/OR OBSTRUCTIONS TO VISIBILITY.

* THESE STATIONS ARE NOT UNDER NWS QUALITY CONTROL. THEY ALSO MAY NOT
  REPORT WEATHER SUCH AS PRECIPITATION OR FOG.

ILZ001-002-007-009-015-016-024-260700-
NORTHWEST ILLINOIS

CITY           SKY/WX    TMP DP  RH WIND       PRES   REMARKS
MOLINE         MOCLDY    75  63  66 S9        29.88F
6HR MIN TEMP:  69; 6HR MAX TEMP:  83;

SAVANNA*       MOCLDY    66  61  84 S5        29.89S
$$

ILZ003-004-008-010-011-017-018-260700-
NORTH CENTRAL ILLINOIS

CITY           SKY/WX    TMP DP  RH WIND       PRES   REMARKS
ROCKFORD       PTCLDY    67  64  90 SE6       29.93S
6HR MIN TEMP:  67; 6HR MAX TEMP:  73;

FREEPORT*      PTCLDY    63  60  91 CALM      29.92S
ROCHELLE*      CLEAR     67  65  93 S6        29.92S
DE KALB*       CLEAR     65  64  96 SE7       29.93F FOG
$$

ILZ005-006-012>014-019>023-260700-
NORTHEAST ILLINOIS

CITY           SKY/WX    TMP DP  RH WIND       PRES   REMARKS
CHICAGO-OHARE  MOCLDY    65  63  93 SE10      29.93F
6HR MIN TEMP:  65; 6HR MAX TEMP:  68; 6HR PCP:  0.16;

CHICAGO-MIDWAY CLEAR     65  61  87 E6        29.94F
6HR MIN TEMP:  65; 6HR MAX TEMP:  69; 6HR PCP:  0.17;

AURORA         PTCLDY    67  64  90 SE5       29.93F
6HR MIN TEMP:  66; 6HR MAX TEMP:  70; 6HR PCP:  0.02;

LANSING*       CLEAR     64  60  88 E5        29.95F
JOLIET*        CLEAR     70  66  87 CALM      29.93F
WAUKEGAN       PTCLDY    66  65  96 S8        29.91F
6HR MIN TEMP:  63; 6HR MAX TEMP:  67; 6HR PCP:  0.42;

DUPAGE AIRPORT CLOUDY    67  64  90 SE9       29.92F FOG
6HR MIN TEMP:  66; 6HR MAX TEMP:  67; 6HR PCP:  0.10;

KANKAKEE*      CLEAR    N/A N/A N/A S10       29.96F
WHEELING       MOCLDY    65  64  97 S9        29.93F
6HR MIN TEMP:  65; 6HR MAX TEMP:  68; 6HR PCP:  0.65;

MORRIS*        CLEAR     71  64  77 S6        29.92F
ROMEOVILLE*    MOCLDY    68  63  83 S6        29.93F
NORTHERLY ISL    N/A     58  57  97 SE1         N/A
NORTHERLY ISL    N/A     58  57  97 SE1         N/A
$$

LMZ740>746-260700-
SOUTHERN LAKE MICHIGAN

STATION/POSITION SKY/WX   TEMP    WIND        PRES    VSBY  WAVE
                          AIR SEA DIR/SP/G                  HT/PER
                          (F)     (DEG/KT/KT) (MB)    (MI)  (FT/S)
SOUTHERN BUOY              55 49  150/ 14/ 14 1012.4F         1/ 3
WILMETTE HARBOR            58 56  190/ 14/ 16   N/A           1/ 2
HARRISON CRIB              60     170/ 15/ 17   N/A
BURNHAM HARBOR             59     150/  1/  6   N/A
CALUMET HARBOR             63      80/  9/ 14 1014.1F
BURNS HARBOR               66     100/  6/  9 1015.2F
MICHIGAN CITY              64      70/  9/ 11   N/A
MICHIGAN CITY 6N           61 58  110/  8/ 10   N/A           1/ 2
ST. JOSEPH                 63 60  120/ 10/ 12   N/A           1/ 3
$$

ILZ025>027-034>036-040-047-049-050-058-095>099-260700-
WEST-CENTRAL ILLINOIS

CITY           SKY/WX    TMP DP  RH WIND       PRES   REMARKS
QUINCY         CLEAR     72  64  76 S8        29.91F
GALESBURG*     PTCLDY    71  64  79 S8        29.91F
MACOMB*        PTCLDY    72  64  77 S9        29.94S
JACKSONVILLE*  CLEAR     72  63  75 S7        29.93F
PITTSFIELD*    CLEAR     72  65  79 S7        29.94F
$$

ILZ028>032-037-038-041>044-048-051>054-059>061-260700-
CENTRAL ILLINOIS

CITY           SKY/WX    TMP DP  RH WIND       PRES   REMARKS
PONTIAC        PTCLDY    73  67  83 S10       29.95S
BLOOMINGTON    CLEAR     69  68  97 S9        29.96F
DECATUR        CLEAR     70  66  87 SW13      29.96F
PEORIA         CLEAR     70  65  84 S7        29.93S
6HR MIN TEMP:  70; 6HR MAX TEMP:  81;

LACON*         CLEAR     70  65  84 S5        29.92S
LINCOLN*       CLEAR     71  67  87 S6        29.94S
SPRINGFIELD    CLEAR     72  66  81 S10       29.95S
6HR MIN TEMP:  72; 6HR MAX TEMP:  81;

TAYLORVILLE    CLEAR     69  66  92 S9        29.97S
6HR MIN TEMP:  69; 6HR MAX TEMP:  77;

$$

ILZ033-039-045-046-055>057-062-063-260700-
EAST-CENTRAL ILLINOIS

CITY           SKY/WX    TMP DP  RH WIND       PRES   REMARKS
CHAMPAIGN      CLOUDY    70  66  87 S8        29.98S
RANTOUL*       MOCLDY    70  66  88 S6        29.98S
MATTOON        MOCLDY    70  65  84 S12       29.97F
PARIS*         CLOUDY    70  66  88 S5        30.00F
$$

ILZ079-100>102-260700-
SOUTHWEST ILLINOIS

CITY           SKY/WX    TMP DP  RH WIND       PRES   REMARKS
ALTON          CLEAR     69  66  88 S9        29.97F
BELLEVILLE     CLEAR     69  69 100 VRB5      29.97F
CAHOKIA*       CLEAR     72  66  81 S3        29.97S
SPARTA*        PTCLDY    68  65  92 S10G18    30.01F
$$

ILZ064>066-069>071-074>076-080>082-084>086-088>090-092>094-260700-
SOUTH-CENTRAL ILLINOIS

CITY           SKY/WX    TMP DP  RH WIND       PRES   REMARKS
CARBONDALE     MOCLDY    67  63  87 SW10      30.02F
6HR MIN TEMP:  67; 6HR MAX TEMP:  74;

CAIRO*         MOCLDY    67  64  91 CALM      30.04F
EFFINGHAM*     CLEAR     67  67 100 SE5       30.01S
MARION         PTCLDY    66  64  94 S8        30.03S
MT. VERNON     MOCLDY    66  61  82 SW7       30.03S
CENTRALIA*     MOCLDY    68  67  94 S8        30.00S
SALEM*         CLEAR     69  65  87 S6        30.00F
METROPOLIS*    PTCLDY    67  66  95 S6        30.05S
$$

ILZ067-068-072-073-078-083-087-091-260700-
SOUTHEAST ILLINOIS

CITY           SKY/WX    TMP DP  RH WIND       PRES   REMARKS
LAWRENCEVILLE  MOCLDY    68  65  90 S7        30.02S
FLORA*         CLOUDY    68  66  94 S7        30.01S
FAIRFIELD*     MOCLDY    67  65  94 S5        30.01S
HARRISBURG*    MOCLDY    67  65  93 CALM      30.04S
ROBINSON*      MOCLDY    67  65  92 S5        30.03S
CARMI*         CLEAR     67  66  96 S6        30.02S
$$

ABBREVIATIONS USED IN REMARKS
   TC - TEMPERATURE IN CELSIUS
  WCI - WIND CHILL INDEX
   HX - HEAT INDEX
  VSB - VISIBILITY
$$





USA.gov is the U.S. government's official web portal to all federal, state and local government web resources and services.